Powrót do katalogu

STARLINK-3209

AktywnyŁącznośćVLEO
NORAD 49752·PAYLOAD·🇺🇸 United States

Wystrzelony Dec 2, 2021 z Cape Canaveral Space Force Station

Loading…

Następne Przeloty (najbliższe 24 godziny)

TLE

ŚwieżeSource: CelesTrak SupGP

Epoka: Sep 14, 2026, 20:28 UTC

1 49752C 21115AE  26257.85326389 -.00038971  00000+0 -11516-2 0  2575
2 49752  53.1582 355.7821 0001223  81.7074 357.0161 15.34404705    16

Śledź STARLINK-3209 w czasie rzeczywistym z AllMySat

Download on the App Store